User: anonymous   Login
Location: Unspecified
(0.0000°N, 0.0000°E)
Time: 19:12:49
(UTC+00:00)
Language:

STARLINK-31966 - Orbit

View from above orbital plane
View from above orbital plane
View from above satellite
View from above satellite

Ground track
Ground track

The orbit is defined by the following mean orbital elements,

1 59944U          26145.60108091 +.00000000 +00000-0 +49104-4 0 00009
2 59944  42.9989 258.3165 0001295 267.7343  92.3360 15.27578910    01
Epoch (UTC): 25 May 2026 14:25:33
Eccentricity: 0.0001295
inclination: 42.9989°
perigee height: 482 km
apogee height: 484 km
right ascension of ascending node: 258.3165°
argument of perigee: 267.7343°
revolutions per day: 15.27578910
mean anomaly at epoch: 92.3360°

The dashed part of the orbit path shows where the satellite is in the earth's shadow,  

DLR